Retour au catalogue

DELTA 1 R/B

ActifSSO
NORAD 1983·ROCKET BODY·🇺🇸 United States

Lancé Feb 3, 1966 depuis Cape Canaveral Space Force Station

Loading…

Prochains Passages (prochaines 24 heures)

TLE

FraisSource: Space-Track

Époque: Sep 14, 2026, 04:41 UTC

1 01983U 66008B   26257.19555178  .00000631  00000-0  11332-3 0  9997
2 01983  98.0264 173.0935 0063438 170.8568 189.3809 14.68851420185707

Suivez DELTA 1 R/B en temps réel avec AllMySat

Download on the App Store